[[{"header":{"parameterUnit":"m.s-1","parameterCategory":1,"la1":30.2991,"la2":30.254,"lo1":-89.0895,"lo2":-89.0444,"dy":0.0017,"dx":0.0017,"nx":28,"ny":28,"refTime":"2025-08-03T03:00:00:Z","depth":0,"parameterNumber":2,"parameterNumberName":"U-component_of_WINDS"},"data":[0,0,0,0,0,0,0,0,0,0,0,0,0,0,0,0,0,0,0,0,0,0,0,0,0,0,0,0,0,0,0,0,0,0,0,0,0,0,0,0,0,0,0,0,0,0,0,0,0,0,0,0,0,0,0,0,0,0,-0.6016,-0.6016,0,-0.6021,-0.6022,-0.6022,-0.6006,-0.6005,-0.6005,-0.6005,-0.601,-0.6011,-0.6011,0,0,0,0,0,0,0,0,0,0,0,0,0,-0.5992,-0.5993,-0.6016,-0.6016,-0.6016,-0.6021,-0.6022,-0.6022,-0.6006,-0.6005,-0.6005,-0.6004,-0.601,-0.6011,-0.6012,0,0,0,0,0,0,0,0,0,0,0,0,0,-0.6001,-0.5993,-0.6016,-0.6009,-0.6008,-0.6021,-0.6022,-0.6022,-0.6006,-0.6005,-0.6005,-0.6004,-0.601,-0.6011,-0.6012,-0.6032,0,0,-0.6014,-0.6015,0,0,0,0,0,0,0,0,-0.6,-0.6002,-0.601,-0.6009,-0.6009,-0.6012,-0.6015,-0.6025,-0.6006,-0.6007,-0.6005,-0.6004,-0.6012,-0.6012,-0.6015,-0.6032,-0.6032,-0.6015,-0.6015,-0.6015,-0.6016,0,0,0,0,0,0,0,-0.6,-0.6001,-0.6018,-0.601,-0.6009,-0.6006,-0.6006,-0.6017,-0.6013,-0.6007,-0.6006,-0.6007,-0.6011,-0.6014,-0.6015,-0.6032,-0.6014,-0.6015,-0.6016,-0.6016,-0.6068,-0.6068,0,0,0,0,0,0,-0.6,-0.6001,-0.6018,-0.6018,-0.6003,-0.6007,-0.6007,-0.6012,-0.6013,-0.6013,-0.6007,-0.6006,-0.6013,-0.6014,-0.6015,-0.604,-0.6015,-0.6016,-0.6017,-0.6067,-0.6068,-0.6069,0,0,0,0,0,0,-0.5999,-0.6002,-0.6018,-0.6009,-0.6011,-0.6008,-0.6013,-0.6012,-0.6015,-0.6013,-0.6013,-0.6011,-0.6012,-0.6014,-0.6028,-0.604,-0.6017,-0.6018,-0.6066,-0.6067,-0.6068,-0.6088,0,0,0,0,0,0,-0.5999,-0.6001,-0.6009,-0.601,-0.6012,-0.603,-0.6014,-0.6013,-0.6017,-0.6015,-0.6017,-0.6016,-0.6012,-0.6027,-0.6029,-0.604,-0.6018,-0.6065,-0.6066,-0.6068,-0.6087,-0.609,-0.6093,0,0,0,0,0,-0.5998,-0.6014,-0.6009,-0.6012,-0.6021,-0.6031,-0.6032,-0.6027,-0.6018,-0.6026,-0.6024,-0.6016,-0.6038,-0.6028,-0.6031,-0.6043,-0.6064,-0.6066,-0.6068,-0.6085,-0.6089,-0.6093,0,0,0,0,0,0,-0.6015,-0.6014,-0.6009,-0.6025,-0.6029,-0.6028,-0.6038,-0.6031,-0.6037,-0.6035,-0.6028,-0.6029,-0.6044,-0.6045,-0.6034,-0.6063,-0.6049,-0.6052,-0.6062,-0.6066,-0.6069,-0.6069,-0.6019,0,0,0,0,0,-0.602,-0.6029,-0.6028,-0.6043,-0.6044,-0.6041,-0.6045,-0.6041,-0.6044,-0.6045,-0.6045,-0.6048,-0.6056,-0.6061,-0.6067,-0.6086,-0.6087,-0.6096,-0.6099,-0.6102,-0.6104,-0.6115,-0.6119,-0.6075,-0.6075,-0.6075,0,0,-0.6032,-0.6033,-0.6038,-0.6046,-0.6048,-0.6057,-0.6042,-0.6052,-0.6059,-0.6046,-0.606,-0.606,-0.6063,-0.608,-0.6088,-0.6081,-0.6116,-0.6104,-0.6106,-0.6107,-0.6117,-0.6122,-0.6125,-0.6076,-0.6076,-0.6075,0,0,-0.6058,-0.6059,-0.6072,-0.6074,-0.6078,-0.6075,-0.6079,-0.608,-0.6079,-0.6093,-0.6084,-0.6092,-0.6105,-0.6108,-0.6111,-0.6139,-0.6132,-0.6142,-0.6159,-0.6169,-0.6173,-0.6176,-0.6187,-0.6191,-0.6144,-0.6144,-0.6144,0,-0.6072,-0.6085,-0.608,-0.6091,-0.6095,-0.6084,-0.6097,-0.61,-0.6105,-0.6108,-0.6101,-0.6117,-0.6119,-0.6137,-0.6144,-0.6146,-0.615,-0.6142,-0.6173,-0.6176,-0.6179,-0.6189,-0.6193,-0.6145,-0.6145,-0.6145,-0.6145,0,-0.6103,-0.6113,-0.6123,-0.6128,-0.6133,-0.6146,-0.6142,-0.6148,-0.6143,-0.6142,-0.6156,-0.6158,-0.6165,-0.6169,-0.6164,-0.6187,-0.6182,-0.6174,-0.6161,-0.6184,-0.6194,-0.6198,-0.6147,-0.6146,-0.6146,-0.6146,0,0,-0.6139,-0.6142,-0.6146,-0.6149,-0.6152,-0.616,-0.6172,-0.6179,-0.6184,-0.6188,-0.6199,-0.621,-0.6203,-0.6207,-0.6202,-0.6212,-0.6235,-0.6202,-0.6202,-0.6209,-0.6261,-0.6267,-0.6272,-0.623,-0.6231,-0.6232,-0.6261,0,-0.6166,-0.6186,-0.6182,-0.6202,-0.6211,-0.6202,-0.6212,-0.6216,-0.6215,-0.6223,-0.6222,-0.6231,-0.622,-0.6222,-0.6231,-0.623,-0.6246,-0.6228,-0.624,-0.6241,-0.624,-0.6277,-0.6284,-0.6311,-0.6264,-0.6265,-0.6265,0,-0.6199,-0.6205,-0.6226,-0.6229,-0.6233,-0.6242,-0.6249,-0.6257,-0.626,-0.6259,-0.6264,-0.6258,-0.627,-0.6257,-0.6274,-0.6262,-0.6267,-0.6268,-0.6269,-0.627,-0.6255,-0.628,-0.6319,-0.6324,-0.6271,-0.6271,-0.627,0,-0.6224,-0.6238,-0.6252,-0.6255,-0.6258,-0.6265,-0.6267,-0.627,-0.6275,-0.6281,-0.6285,-0.6292,-0.6296,-0.6302,-0.6299,-0.6289,-0.6317,-0.6303,-0.6317,-0.6317,-0.6323,-0.6323,-0.6365,-0.6325,-0.6325,-0.6325,-0.6325,0,-0.6254,-0.6268,-0.6264,-0.6273,-0.6288,-0.6283,-0.6299,-0.6299,-0.6302,-0.6312,-0.6304,-0.6313,-0.6307,-0.6316,-0.6313,-0.6329,-0.633,-0.633,-0.6329,-0.6331,-0.6331,-0.6334,-0.6333,-0.6326,-0.6326,-0.6326,-0.6326,0,-0.6285,-0.6283,-0.6299,-0.6301,-0.6301,-0.6313,-0.6315,-0.6323,-0.6322,-0.6334,-0.6337,-0.6335,-0.6345,-0.6342,-0.6353,-0.6351,-0.6371,-0.6367,-0.637,-0.6369,-0.6383,-0.6382,-0.6429,-0.6435,-0.6392,-0.6392,-0.6392,0,-0.6305,-0.6315,-0.6318,-0.6324,-0.6327,-0.6336,-0.6341,-0.6337,-0.6343,-0.6349,-0.6357,-0.6366,-0.6374,-0.639,-0.639,-0.6398,-0.6395,-0.6411,-0.6396,-0.6398,-0.6396,-0.6396,-0.6397,-0.6414,-0.6415,-0.6415,-0.6415,0,-0.634,-0.6338,-0.6346,-0.6354,-0.6361,-0.6367,-0.6372,-0.6378,-0.6374,-0.6381,-0.6391,-0.6397,-0.6408,-0.6418,-0.6426,-0.6428,-0.6421,-0.642,-0.6424,-0.6426,-0.6427,-0.6427,-0.6378,-0.6419,-0.6419,-0.6418,-0.6418,-0.6418,-0.6366,-0.6375,-0.6379,-0.6389,-0.6392,-0.6398,-0.6406,-0.6407,-0.6415,-0.6424,-0.6421,-0.6433,-0.6438,-0.6448,-0.6451,-0.646,-0.6454,-0.6459,-0.6461,-0.6462,-0.6464,-0.6425,-0.6461,-0.6461,-0.6461,-0.6461,-0.6461,0,-0.6401,-0.6403,-0.6412,-0.642,-0.6428,-0.6421,-0.6427,-0.6434,-0.6445,-0.645,-0.6457,-0.647,-0.6479,-0.648,-0.6489,-0.6497,-0.6494,-0.6499,-0.6499,-0.65,-0.6469,-0.6465,-0.6501,-0.6501,-0.6501,-0.6501,-0.6501,-0.6501,-0.642,-0.6436,-0.6435,-0.6453,-0.6455,-0.6467,-0.6471,-0.6476,-0.648,-0.6494,-0.6502,-0.6503,-0.6506,-0.6516,-0.6524,-0.6525,-0.6528,-0.6535,-0.6534,-0.6506,-0.6502,-0.6498,-0.6494,-0.6536,-0.6536,-0.6564,-0.6564,-0.6564]},{"header":{"parameterUnit":"m.s-1","parameterCategory":1,"la1":30.2991,"la2":30.254,"lo1":-89.0895,"lo2":-89.0444,"dy":0.0017,"dx":0.0017,"nx":28,"ny":28,"refTime":"2025-08-03T03:00:00:Z","depth":0,"parameterNumber":3,"parameterNumberName":"V-component_of_WINDS"},"data":[0,0,0,0,0,0,0,0,0,0,0,0,0,0,0,0,0,0,0,0,0,0,0,0,0,0,0,0,0,0,0,0,0,0,0,0,0,0,0,0,0,0,0,0,0,0,0,0,0,0,0,0,0,0,0,0,0,0,-1.3334,-1.3334,0,-1.334,-1.3341,-1.3341,-1.3338,-1.3338,-1.3338,-1.3338,-1.3344,-1.3345,-1.3345,0,0,0,0,0,0,0,0,0,0,0,0,0,-1.3318,-1.3318,-1.3334,-1.3334,-1.3334,-1.334,-1.3341,-1.3341,-1.3338,-1.3338,-1.3338,-1.3338,-1.3344,-1.3345,-1.3345,0,0,0,0,0,0,0,0,0,0,0,0,0,-1.3325,-1.3318,-1.3334,-1.3333,-1.3333,-1.334,-1.3341,-1.3341,-1.3338,-1.3338,-1.3338,-1.3337,-1.3344,-1.3345,-1.3345,-1.3353,0,0,-1.3347,-1.3347,0,0,0,0,0,0,0,0,-1.3324,-1.3325,-1.3333,-1.3333,-1.3333,-1.3338,-1.3337,-1.3345,-1.3338,-1.3336,-1.3338,-1.3337,-1.3342,-1.3343,-1.3345,-1.3353,-1.3353,-1.3347,-1.3347,-1.3347,-1.3347,0,0,0,0,0,0,0,-1.3324,-1.3325,-1.3336,-1.3333,-1.3333,-1.3333,-1.3333,-1.3339,-1.3341,-1.3336,-1.3336,-1.3337,-1.3342,-1.3344,-1.3345,-1.3353,-1.3347,-1.3347,-1.3347,-1.3348,-1.3368,-1.3368,0,0,0,0,0,0,-1.3323,-1.3324,-1.3336,-1.3337,-1.3328,-1.3333,-1.3334,-1.3337,-1.3341,-1.3341,-1.3337,-1.3337,-1.3344,-1.3344,-1.3345,-1.3355,-1.3347,-1.3348,-1.3348,-1.3368,-1.3368,-1.3368,0,0,0,0,0,0,-1.3323,-1.3324,-1.3336,-1.333,-1.3332,-1.3334,-1.3337,-1.3337,-1.3339,-1.3341,-1.3341,-1.3339,-1.3344,-1.3345,-1.3351,-1.3355,-1.3348,-1.3348,-1.3368,-1.3368,-1.3368,-1.3373,0,0,0,0,0,0,-1.3322,-1.3324,-1.3327,-1.3331,-1.3332,-1.3342,-1.3337,-1.3337,-1.334,-1.334,-1.3343,-1.3343,-1.3343,-1.335,-1.3351,-1.3355,-1.3349,-1.3367,-1.3368,-1.3368,-1.3373,-1.3374,-1.3375,0,0,0,0,0,-1.3322,-1.3328,-1.3327,-1.3329,-1.3336,-1.3342,-1.3343,-1.3343,-1.334,-1.3343,-1.3345,-1.3343,-1.3354,-1.3351,-1.3352,-1.3356,-1.3367,-1.3368,-1.3368,-1.3372,-1.3374,-1.3375,0,0,0,0,0,0,-1.3326,-1.3329,-1.3328,-1.3336,-1.3338,-1.3341,-1.3345,-1.3344,-1.3348,-1.3347,-1.3347,-1.3348,-1.3355,-1.3356,-1.3352,-1.3364,-1.336,-1.3361,-1.3363,-1.3364,-1.3365,-1.3365,-1.3349,0,0,0,0,0,-1.3327,-1.3332,-1.3334,-1.3341,-1.3342,-1.3344,-1.3346,-1.3346,-1.3349,-1.335,-1.3352,-1.3355,-1.3359,-1.3361,-1.3365,-1.3373,-1.3373,-1.3376,-1.3377,-1.3378,-1.3379,-1.3383,-1.3384,-1.337,-1.337,-1.337,0,0,-1.3331,-1.3333,-1.3336,-1.3342,-1.3344,-1.3348,-1.3345,-1.335,-1.3353,-1.3351,-1.3357,-1.3358,-1.3361,-1.3368,-1.3372,-1.337,-1.3383,-1.3379,-1.3379,-1.338,-1.3384,-1.3385,-1.3386,-1.3371,-1.3371,-1.3371,0,0,-1.334,-1.3342,-1.3348,-1.335,-1.3353,-1.3354,-1.3355,-1.3358,-1.3359,-1.3366,-1.3364,-1.3368,-1.3375,-1.3377,-1.3379,-1.3388,-1.3387,-1.3389,-1.3395,-1.3399,-1.34,-1.3401,-1.3405,-1.3406,-1.339,-1.339,-1.339,0,-1.3344,-1.3351,-1.3351,-1.3356,-1.3359,-1.3357,-1.3362,-1.3365,-1.3369,-1.3371,-1.3368,-1.3377,-1.3379,-1.3387,-1.3389,-1.339,-1.3392,-1.3389,-1.34,-1.3401,-1.3402,-1.3405,-1.3407,-1.3391,-1.3391,-1.339,-1.339,0,-1.3356,-1.3361,-1.3365,-1.337,-1.3372,-1.3378,-1.3378,-1.3381,-1.3381,-1.3381,-1.3388,-1.339,-1.3394,-1.3396,-1.3395,-1.3403,-1.3402,-1.34,-1.3396,-1.3403,-1.3407,-1.3408,-1.3391,-1.3391,-1.3391,-1.3391,0,0,-1.3369,-1.3372,-1.3374,-1.3376,-1.3379,-1.3383,-1.3388,-1.3392,-1.3395,-1.3398,-1.3402,-1.3408,-1.3406,-1.3408,-1.3408,-1.3411,-1.3419,-1.3408,-1.3409,-1.3411,-1.3428,-1.343,-1.3432,-1.3418,-1.3418,-1.3418,-1.3428,0,-1.3378,-1.3388,-1.3387,-1.3396,-1.3401,-1.3398,-1.3403,-1.3405,-1.3406,-1.341,-1.341,-1.3415,-1.3411,-1.3413,-1.3416,-1.3417,-1.3422,-1.3416,-1.3422,-1.3422,-1.3422,-1.3434,-1.3436,-1.3445,-1.3429,-1.343,-1.343,0,-1.3391,-1.3394,-1.3404,-1.3406,-1.3408,-1.3412,-1.3416,-1.342,-1.3422,-1.3422,-1.3425,-1.3424,-1.3429,-1.3424,-1.3431,-1.3427,-1.3429,-1.343,-1.3431,-1.3432,-1.3427,-1.3436,-1.3448,-1.345,-1.3432,-1.3432,-1.3431,0,-1.34,-1.3406,-1.3413,-1.3415,-1.3418,-1.3421,-1.3422,-1.3424,-1.3427,-1.343,-1.3431,-1.3435,-1.3437,-1.344,-1.344,-1.3436,-1.3447,-1.3442,-1.3448,-1.3448,-1.345,-1.345,-1.3464,-1.3451,-1.3451,-1.3451,-1.3451,0,-1.3411,-1.3417,-1.3417,-1.3421,-1.3427,-1.3427,-1.3433,-1.3434,-1.3436,-1.344,-1.3438,-1.3442,-1.3441,-1.3445,-1.3445,-1.3451,-1.3451,-1.3452,-1.3452,-1.3453,-1.3453,-1.3454,-1.3454,-1.3451,-1.3451,-1.3451,-1.3451,0,-1.3422,-1.3422,-1.3429,-1.3431,-1.3432,-1.3437,-1.3438,-1.3442,-1.3442,-1.3448,-1.3449,-1.3449,-1.3454,-1.3454,-1.3458,-1.3458,-1.3466,-1.3465,-1.3465,-1.3465,-1.3471,-1.347,-1.3487,-1.3489,-1.3473,-1.3473,-1.3474,0,-1.343,-1.3434,-1.3437,-1.3439,-1.3441,-1.3445,-1.3448,-1.3447,-1.345,-1.3453,-1.3456,-1.346,-1.3464,-1.347,-1.3471,-1.3475,-1.3474,-1.348,-1.3475,-1.3475,-1.3475,-1.3475,-1.3476,-1.3481,-1.3481,-1.3481,-1.3481,0,-1.3443,-1.3443,-1.3447,-1.3451,-1.3454,-1.3457,-1.3459,-1.3461,-1.3461,-1.3464,-1.3468,-1.3471,-1.3476,-1.348,-1.3484,-1.3485,-1.3483,-1.3483,-1.3484,-1.3485,-1.3486,-1.3486,-1.3469,-1.3483,-1.3483,-1.3482,-1.3482,-1.3482,-1.3453,-1.3457,-1.3459,-1.3464,-1.3465,-1.3468,-1.3472,-1.3472,-1.3476,-1.348,-1.3479,-1.3484,-1.3487,-1.3491,-1.3493,-1.3496,-1.3495,-1.3497,-1.3497,-1.3498,-1.3499,-1.3484,-1.3497,-1.3497,-1.3497,-1.3497,-1.3497,0,-1.3467,-1.3468,-1.3472,-1.3476,-1.3479,-1.3477,-1.348,-1.3483,-1.3487,-1.3489,-1.3493,-1.3498,-1.3502,-1.3503,-1.3507,-1.3509,-1.3509,-1.3511,-1.3511,-1.3511,-1.35,-1.3499,-1.3511,-1.3511,-1.3511,-1.3511,-1.3511,-1.3511,-1.3474,-1.3481,-1.3481,-1.3488,-1.349,-1.3495,-1.3497,-1.3499,-1.3501,-1.3506,-1.351,-1.351,-1.3512,-1.3516,-1.3519,-1.352,-1.3521,-1.3524,-1.3523,-1.3513,-1.3512,-1.3511,-1.3509,-1.3524,-1.3524,-1.3534,-1.3534,-1.3534]}]]